{"data":{"norad_id":60026,"intl_designator":"2024-111L","name":"STARLINK-31939","alt_names":[],"object_type":"PAYLOAD","status":"ACTIVE","operator":null,"country":"US","launch_date":"2024-06-08","launch_site_code":"AFETR","launch_vehicle":null,"mission":null,"orbit_class":"UNKNOWN","rcs_meters":null,"size_class":null,"mass_kg":null,"dimensions":null,"purposes":["comms"],"wikipedia_slug":null,"has_3d_model":false,"image_url":null,"decayed_at":null,"tle_current":{"epoch":"2026-05-25T02:12:38.258208Z","epoch_age_seconds":60371,"freshness":"FRESH","line1":"1 60026U 24111L   26145.09210947  .00002178  00000+0  85639-4 0  9995","line2":"2 60026  53.1604  80.5598 0001237  85.1062 275.0080 15.30204772110730","mean_motion":15.30204772,"eccentricity":0.0001237,"inclination_deg":53.1604,"raan_deg":80.5598,"arg_perigee_deg":85.1062,"mean_anomaly_deg":275.008,"bstar":8.5639e-5,"rev_number":11073,"period_min":94.105052235453,"perigee_km":474.35306323604,"apogee_km":476.04857901299,"semimajor_km":6853.3378211245,"source":"CELESTRAK","updated_at":"2026-05-25T13:38:19.132749Z"}}}